Evanston, WY

11:22 AM MST on November 18, 2017 (GMT -0700)
Evanston-Uinta County Burns

Weather History for KEVW - January, 2013

Change the Weather History Date:

Friday, January 18, 2013

  Actual Average Record
Temperature  
Mean Temperature 23 °F 22 °F  
Max Temperature 34 °F 29 °F 45 °F (2015)
Min Temperature 12 °F 14 °F 1 °F (2007)
Degree Days  
Heating Degree Days 42 43  
Month to date heating degree days 878 784  
Since 1 July heating degree days 3852 4263  
Cooling Degree Days 0 0  
Month to date cooling degree days 0 0  
Year to date cooling degree days 0 0  
Moisture  
Dew Point 10 °F    
Average Humidity 58    
Maximum Humidity 73    
Minimum Humidity 43    
Precipitation  
Precipitation 0.00 in 0.02 in 0.40 in (2000)
Month to date precipitation 0.02 0.33  
Year to date precipitation 0.02 0.33  
Sea Level Pressure  
Sea Level Pressure 30.46 in    
Wind  
Wind Speed 9 mph (SSW)    
Max Wind Speed 14 mph    
Max Gust Speed -    
Visibility 10 miles    
Events      
T = Trace of Precipitation, MM = Missing Value Source: NWS Daily Summary

Daily Weather History Graph

Daily Weather History Graph

Search for Another Location

Airport or City:

Trip Planner

Search our weather history database for the weather conditions in past years. The results will help you decide how hot, cold, wet, or windy it might be!

Date:

Astronomy

Jan. 18, 2013 Rise Set
Actual Time 7:45 AM MST 5:23 PM MST
Civil Twilight 7:15 AM MST 5:54 PM MST
Nautical Twilight 6:41 AM MST 6:27 PM MST
Astronomical Twilight 6:08 AM MST 7:00 PM MST
Moon 11:21 AM MST 12:22 AM MST
Length of Visible Light 10h 38m
Length of Day
9h 37m
Waxing Crescent, 48% of the Moon is Illuminated
Jan 18
Waxing Crescent
Jan 18
First Quarter
Jan 26
Full
Feb 3
Last Quarter
Feb 10
New

Hourly Weather History & Observations

Time (MST) Temp. Windchill Dew Point Humidity Pressure Visibility Wind Dir Wind Speed Gust Speed Precip Events Conditions
12:53 AM 19.0 °F 10.0 °F 9.0 °F 65% 30.50 in 10.0 mi South 6.9 mph - N/A   Clear
1:53 AM 17.1 °F 6.6 °F 9.0 °F 71% 30.48 in 10.0 mi South 8.1 mph - N/A   Clear
2:53 AM 17.1 °F 6.6 °F 9.0 °F 71% 30.47 in 10.0 mi South 8.1 mph - N/A   Clear
3:53 AM 15.1 °F 5.2 °F 8.1 °F 74% 30.49 in 10.0 mi South 6.9 mph - N/A   Clear
4:53 AM 17.1 °F 6.6 °F 8.1 °F 68% 30.47 in 10.0 mi South 8.1 mph - N/A   Clear
5:53 AM 17.1 °F 6.6 °F 8.1 °F 68% 30.49 in 10.0 mi South 8.1 mph - N/A   Clear
6:53 AM 15.1 °F 2.5 °F 7.0 °F 70% 30.49 in 10.0 mi SSW 10.4 mph - N/A   Clear
7:53 AM 16.0 °F 4.4 °F 7.0 °F 68% 30.49 in 10.0 mi South 9.2 mph - N/A   Clear
8:53 AM 19.0 °F 10.0 °F 7.0 °F 59% 30.49 in 10.0 mi South 6.9 mph - N/A   Clear
9:53 AM 19.9 °F 9.3 °F 9.0 °F 62% 30.52 in 10.0 mi SSW 9.2 mph - N/A   Clear
10:53 AM 21.9 °F 11.7 °F 9.0 °F 58% 30.51 in 10.0 mi SSW 9.2 mph - N/A   Clear
11:53 AM 25.0 °F 13.1 °F 10.0 °F 53% 30.46 in 10.0 mi WSW 13.8 mph - N/A   Clear
12:53 PM 28.0 °F 20.8 °F 12.0 °F 51% 30.41 in 10.0 mi SW 6.9 mph - N/A   Clear
1:53 PM 30.0 °F 23.2 °F 12.9 °F 49% 30.40 in 10.0 mi SW 6.9 mph - N/A   Clear
2:53 PM 32.0 °F 23.0 °F 14.0 °F 48% 30.38 in 10.0 mi SW 11.5 mph - N/A   Clear
3:53 PM 32.0 °F 23.6 °F 12.9 °F 45% 30.40 in 10.0 mi SW 10.4 mph - N/A   Clear
4:53 PM 28.0 °F 18.1 °F 12.9 °F 53% 30.41 in 10.0 mi WSW 11.5 mph - N/A   Clear
5:53 PM 26.1 °F 16.8 °F 10.0 °F 51% 30.43 in 10.0 mi SSW 9.2 mph - N/A   Clear
6:53 PM 23.0 °F 12.4 °F 10.0 °F 58% 30.46 in 10.0 mi SSW 10.4 mph - N/A   Clear
7:53 PM 19.0 °F 6.1 °F 9.0 °F 65% 30.47 in 10.0 mi WSW 12.7 mph - N/A   Clear
8:53 PM 19.9 °F 7.3 °F 9.0 °F 62% 30.46 in 10.0 mi WSW 12.7 mph - N/A   Clear
9:53 PM 18.0 °F 6.1 °F 8.1 °F 65% 30.48 in 10.0 mi SW 10.4 mph - N/A   Clear
10:53 PM 19.9 °F 10.1 °F 9.0 °F 62% 30.45 in 10.0 mi SW 8.1 mph - N/A   Clear
11:53 PM 19.0 °F 6.8 °F 8.1 °F 62% 30.45 in 10.0 mi WSW 11.5 mph - N/A   Clear